CW1662 Weather Reports


Display with metric or nautical units.
time (UTC)temp
F
wind
direction
speed
MPH
gust
MPH
rain 1hr
in
rain 24hr
in
rain mn
in
humidity
%
barometer
mb
20260505152837 80 202 10.0 15.0 0.00 0.00 0.00 44 1008.9
20260505152341 80 241 7.0 15.0 0.00 0.00 0.00 47 1008.9
20260505151844 80 161 8.0 15.0 0.00 0.00 0.00 45 1008.8
20260505151331 80 184 4.0 11.0 0.00 0.00 0.00 46 1009.1
20260505150856 79 218 3.0 10.0 0.00 0.00 0.00 47 1009.1
20260505150338 79 200 6.0 13.0 0.00 0.00 0.00 47 1009.1
20260505140329 77 200 5.0 13.0 0.00 0.00 0.00 50 1009.0
20260505124840 70 148 5.0 11.0 0.00 0.00 0.00 58 1009.9
20260505124324 69 207 4.0 9.0 0.00 0.00 0.00 60 1009.9
20260505123828 69 198 4.0 9.0 0.00 0.00 0.00 60 1009.9
20260505123351 68 194 4.0 10.0 0.00 0.00 0.00 61 1009.9
20260505122834 68 184 5.0 10.0 0.00 0.00 0.00 61 1009.9
20260505122338 68 187 4.0 9.0 0.00 0.00 0.00 62 1010.0
20260505121842 67 182 4.0 9.0 0.00 0.00 0.00 63 1010.1
20260505121347 67 200 5.0 9.0 0.00 0.00 0.00 64 1010.1
20260505120829 67 192 4.0 8.0 0.00 0.00 0.00 65 1010.1
20260505120333 66 197 3.0 10.0 0.00 0.00 0.00 65 1010.1
20260505115836 66 214 5.0 10.0 0.00 0.00 0.00 65 1010.1
20260505115324 66 192 3.0 6.0 0.00 0.00 0.00 66 1010.1
20260505114828 65 191 2.0 6.0 0.00 0.00 0.00 67 1010.0
20260505114335 65 190 3.0 7.0 0.00 0.00 0.00 67 1010.1
20260505113902 65 194 4.0 7.0 0.00 0.00 0.00 67 1010.0
20260505113346 64 189 2.0 5.0 0.00 0.00 0.00 68 1009.9
20260505112829 64 198 2.0 5.0 0.00 0.00 0.00 68 1009.8
20260505112332 64 188 3.0 5.0 0.00 0.00 0.00 69 1009.9
20260505111857 63 197 3.0 4.0 0.00 0.00 0.00 70 1009.7
20260505111340 62 195 2.0 5.0 0.00 0.00 0.00 71 1009.5
20260505110825 62 198 0.0 5.0 0.00 0.00 0.00 73 1009.5
20260505110333 61 190 0.0 3.0 0.00 0.00 0.00 74 1009.6
20260505101851 61 190 1.0 3.0 0.00 0.00 0.00 72 1008.8
20260505101334 62 190 1.0 3.0 0.00 0.00 0.00 71 1008.8
20260505100836 62 189 1.0 4.0 0.00 0.00 0.00 71 1008.8
20260505100344 62 189 1.0 4.0 0.00 0.00 0.00 70 1008.7
20260505095828 63 182 1.0 5.0 0.00 0.00 0.00 69 1008.7
20260505095332 63 193 3.0 10.0 0.00 0.00 0.00 69 1008.6
20260505094840 63 184 4.0 10.0 0.00 0.00 0.00 69 1008.5
20260505094345 63 178 4.0 9.0 0.00 0.00 0.00 69 1008.5
20260505093827 63 205 4.0 8.0 0.00 0.00 0.00 70 1008.5
20260505093331 63 170 4.0 6.0 0.00 0.00 0.00 69 1008.5
20260505092835 63 184 2.0 9.0 0.00 0.00 0.00 69 1008.5
20260505092339 63 185 4.0 9.0 0.00 0.00 0.00 69 1008.5
20260505091823 63 164 2.0 5.0 0.00 0.00 0.00 70 1008.5
20260505091327 63 173 4.0 6.0 0.00 0.00 0.00 70 1008.4
20260505090852 63 179 2.0 8.0 0.00 0.00 0.00 70 1008.5
20260505090335 63 207 3.0 10.0 0.00 0.00 0.00 70 1008.5
20260505085900 62 198 3.0 10.0 0.00 0.00 0.00 70 1008.4
20260505085402 62 190 3.0 9.0 0.00 0.00 0.00 70 1008.4
20260505084826 63 159 4.0 9.0 0.00 0.00 0.00 70 1008.2
20260505084331 62 184 4.0 7.0 0.00 0.00 0.00 71 1008.4
20260505083839 62 193 3.0 6.0 0.00 0.00 0.00 71 1008.4
20260505083324 62 161 3.0 7.0 0.00 0.00 0.00 71 1008.4
20260505082828 62 180 3.0 7.0 0.00 0.00 0.00 71 1008.4
20260505082355 62 192 2.0 4.0 0.00 0.00 0.00 71 1008.5
20260505081838 62 192 2.0 7.0 0.00 0.00 0.00 71 1008.4
20260505081342 62 209 2.0 7.0 0.00 0.00 0.00 71 1008.3
20260505080826 62 170 3.0 4.0 0.00 0.00 0.00 70 1008.4
20260505080333 62 181 2.0 4.0 0.00 0.00 0.00 70 1008.3
20260505075839 63 165 1.0 4.0 0.00 0.00 0.00 69 1008.3
20260505075346 63 159 2.0 5.0 0.00 0.00 0.00 69 1008.3
20260505074830 63 183 3.0 5.0 0.00 0.00 0.00 69 1008.3
20260505074334 63 183 3.0 5.0 0.00 0.00 0.00 68 1008.2
20260505073825 64 183 2.0 6.0 0.00 0.00 0.00 68 1008.2
20260505073329 64 200 3.0 6.0 0.00 0.00 0.00 67 1008.1
20260505072834 64 209 4.0 9.0 0.00 0.00 0.00 68 1008.0
20260505072340 64 196 2.0 9.0 0.00 0.00 0.00 68 1008.0
20260505071824 63 180 2.0 4.0 0.00 0.00 0.00 68 1008.0
20260505071328 63 190 2.0 6.0 0.00 0.00 0.00 69 1007.9
20260505070835 63 192 2.0 6.0 0.00 0.00 0.00 69 1007.9
20260505070343 63 164 1.0 5.0 0.00 0.00 0.00 70 1007.8
20260505065848 62 174 1.0 4.0 0.00 0.00 0.00 71 1007.8
20260505065329 62 205 0.0 4.0 0.00 0.00 0.00 71 1007.8
20260505064833 62 194 1.0 5.0 0.00 0.00 0.00 71 1007.9
20260505064325 62 192 2.0 5.0 0.00 0.00 0.00 72 1007.9
20260505063829 61 185 1.0 2.0 0.00 0.00 0.00 74 1008.0
20260505063354 60 185 1.0 2.0 0.00 0.00 0.00 74 1008.0
20260505062858 60 185 1.0 1.0 0.00 0.00 0.00 74 1008.0
20260505062340 60 185 0.0 1.0 0.00 0.00 0.00 74 1008.0
20260505061824 60 185 0.0 1.0 0.00 0.00 0.00 73 1008.1
20260505061329 61 185 0.0 1.0 0.00 0.00 0.00 73 1008.1
20260505060853 61 185 0.0 1.0 0.00 0.00 0.00 72 1008.2
20260505060340 62 185 0.0 1.0 0.00 0.00 0.00 71 1008.2
20260505055843 62 185 0.0 1.0 0.00 0.00 0.00 70 1008.2
20260505055347 63 185 0.0 2.0 0.00 0.00 0.00 69 1008.2
20260505054830 64 185 0.0 2.0 0.00 0.00 0.00 68 1008.2
20260505054335 64 185 0.0 5.0 0.00 0.00 0.00 68 1008.3
20260505053826 64 185 3.0 6.0 0.00 0.00 0.00 67 1008.3
20260505053351 64 160 3.0 6.0 0.00 0.00 0.00 67 1008.3
20260505052835 65 190 3.0 5.0 0.00 0.00 0.00 67 1008.2
20260505052338 65 196 3.0 6.0 0.00 0.00 0.00 66 1008.3
20260505051902 65 200 3.0 7.0 0.00 0.00 0.00 66 1008.1
20260505051324 65 182 4.0 9.0 0.00 0.00 0.00 66 1008.2
20260505050829 65 202 5.0 10.0 0.00 0.00 0.00 66 1008.1
20260505050334 65 196 4.0 10.0 0.00 0.00 0.00 65 1008.1
20260505041336 67 193 3.0 10.0 0.00 0.00 0.00 62 1008.0
20260505040824 67 166 3.0 7.0 0.00 0.00 0.00 62 1007.9
20260505040327 67 194 4.0 9.0 0.00 0.00 0.00 61 1007.9
20260505035831 68 172 4.0 9.0 0.00 0.00 0.00 61 1008.0
20260505035354 68 191 3.0 7.0 0.00 0.00 0.00 60 1007.9
20260505034858 68 181 3.0 7.0 0.00 0.00 0.00 60 1007.9
20260505034341 68 207 4.0 9.0 0.00 0.00 0.00 59 1008.0
20260505033825 68 198 5.0 9.0 0.00 0.00 0.00 59 1008.0
20260505033349 69 198 4.0 9.0 0.00 0.00 0.00 59 1008.0
20260505032832 69 205 5.0 10.0 0.00 0.00 0.00 58 1008.0
20260505032335 69 183 6.0 10.0 0.00 0.00 0.00 58 1008.0
20260505031840 69 200 5.0 14.0 0.00 0.00 0.00 57 1007.9
20260505031328 70 170 5.0 14.0 0.00 0.00 0.00 57 1008.0
20260505030834 70 171 6.0 12.0 0.00 0.00 0.00 57 1008.0
20260505030342 70 207 8.0 13.0 0.00 0.00 0.00 56 1007.9
20260505025826 70 184 9.0 13.0 0.00 0.00 0.00 56 1007.9
20260505025328 70 193 7.0 12.0 0.00 0.00 0.00 56 1007.9
20260505024853 70 207 7.0 13.0 0.00 0.00 0.00 56 1007.9
20260505024356 70 197 6.0 13.0 0.00 0.00 0.00 56 1007.8
20260505023840 70 198 6.0 12.0 0.00 0.00 0.00 56 1008.0
20260505023324 70 215 6.0 11.0 0.00 0.00 0.00 56 1008.0
20260505022832 70 209 6.0 11.0 0.00 0.00 0.00 55 1007.9
20260505022356 70 214 5.0 11.0 0.00 0.00 0.00 56 1007.9
20260505021839 70 202 7.0 12.0 0.00 0.00 0.00 56 1007.7
20260505021328 70 211 7.0 12.0 0.00 0.00 0.00 56 1007.8
20260505020832 70 194 4.0 7.0 0.00 0.00 0.00 56 1007.8
20260505020339 70 207 4.0 7.0 0.00 0.00 0.00 55 1007.8
20260505015825 70 211 5.0 7.0 0.00 0.00 0.00 55 1007.8
20260505015332 69 197 4.0 7.0 0.00 0.00 0.00 56 1007.7
20260505014837 69 182 2.0 4.0 0.00 0.00 0.00 57 1007.8
20260505014341 69 221 1.0 3.0 0.00 0.00 0.00 57 1007.9
20260505013826 69 221 1.0 2.0 0.00 0.00 0.00 57 1007.9
20260505013330 70 221 0.0 1.0 0.00 0.00 0.00 56 1007.9
20260505012855 70 221 0.0 3.0 0.00 0.00 0.00 55 1007.7
20260505012357 71 221 0.0 4.0 0.00 0.00 0.00 55 1007.6
20260505011841 71 195 1.0 4.0 0.00 0.00 0.00 52 1007.6
20260505011330 72 209 1.0 7.0 0.00 0.00 0.00 52 1007.4
20260505010834 72 197 4.0 7.0 0.00 0.00 0.00 51 1007.4
20260505010339 72 194 3.0 7.0 0.00 0.00 0.00 51 1007.4
20260505005842 71 183 2.0 6.0 0.00 0.00 0.00 51 1007.2
20260505005326 71 210 1.0 2.0 0.00 0.00 0.00 53 1007.2
20260505004830 72 210 0.0 4.0 0.00 0.00 0.00 53 1007.1
20260505004335 73 210 0.0 10.0 0.00 0.00 0.00 51 1007.3
20260505003821 73 213 3.0 10.0 0.00 0.00 0.00 48 1007.2
20260505003329 73 167 5.0 11.0 0.00 0.00 0.00 46 1006.9
20260505002834 73 203 4.0 11.0 0.00 0.00 0.00 45 1006.8
20260505002337 73 187 3.0 7.0 0.00 0.00 0.00 45 1006.7
20260505001826 73 200 2.0 7.0 0.00 0.00 0.00 46 1006.7
20260505001329 73 192 3.0 6.0 0.00 0.00 0.00 46 1006.6
20260505000837 74 190 2.0 6.0 0.00 0.00 0.00 45 1006.6
20260505000343 74 154 3.0 6.0 0.00 0.00 0.00 45 1006.6
20260504235846 74 155 4.0 6.0 0.00 0.00 0.00 45 1006.6
20260504235328 74 167 2.0 7.0 0.00 0.00 0.00 44 1006.7
20260504234834 75 178 2.0 8.0 0.00 0.00 0.00 43 1006.6
20260504234341 75 190 2.0 11.0 0.00 0.00 0.00 43 1006.6
20260504233825 76 184 7.0 14.0 0.00 0.00 0.00 41 1006.6
20260504233330 76 205 4.0 14.0 0.00 0.00 0.00 42 1006.5
20260504232834 76 189 7.0 14.0 0.00 0.00 0.00 41 1006.5
20260504232341 76 225 4.0 14.0 0.00 0.00 0.00 42 1006.5
20260504231826 76 196 5.0 12.0 0.00 0.00 0.00 42 1006.4
20260504231330 77 174 7.0 16.0 0.00 0.00 0.00 41 1006.4
20260504230834 77 196 6.0 16.0 0.00 0.00 0.00 40 1006.4
20260504230340 77 173 6.0 10.0 0.00 0.00 0.00 40 1006.4
20260504225828 77 213 3.0 8.0 0.00 0.00 0.00 40 1006.4
20260504225332 77 194 2.0 8.0 0.00 0.00 0.00 40 1006.4
20260504224836 77 198 4.0 9.0 0.00 0.00 0.00 39 1006.4
20260504224341 77 189 3.0 10.0 0.00 0.00 0.00 40 1006.4
20260504223845 77 188 3.0 10.0 0.00 0.00 0.00 40 1006.5
20260504223329 77 207 4.0 7.0 0.00 0.00 0.00 40 1006.5
20260504222837 77 173 4.0 9.0 0.00 0.00 0.00 40 1006.5
20260504222341 77 168 3.0 12.0 0.00 0.00 0.00 40 1006.6
20260504221825 77 193 4.0 14.0 0.00 0.00 0.00 39 1006.5
20260504221330 78 195 5.0 14.0 0.00 0.00 0.00 39 1006.6
20260504220835 78 196 5.0 13.0 0.00 0.00 0.00 38 1006.6
20260504220340 79 208 5.0 13.0 0.00 0.00 0.00 38 1006.5
20260504215904 79 206 8.0 13.0 0.00 0.00 0.00 37 1006.5
20260504215326 78 201 8.0 13.0 0.00 0.00 0.00 37 1006.6
20260504214831 78 202 5.0 13.0 0.00 0.00 0.00 39 1006.5
20260504214336 78 188 7.0 13.0 0.00 0.00 0.00 38 1006.5
20260504213840 79 203 6.0 14.0 0.00 0.00 0.00 38 1006.5
20260504213345 78 215 7.0 14.0 0.00 0.00 0.00 39 1006.6
20260504212832 79 185 9.0 16.0 0.00 0.00 0.00 36 1006.5
20260504212336 79 221 6.0 18.0 0.00 0.00 0.00 37 1006.4
20260504211859 79 198 5.0 18.0 0.00 0.00 0.00 37 1006.4
20260504211326 79 199 5.0 13.0 0.00 0.00 0.00 36 1006.4
20260504210851 78 221 5.0 17.0 0.00 0.00 0.00 39 1006.5
20260504210354 78 175 8.0 17.0 0.00 0.00 0.00 39 1006.5
20260504205841 78 187 7.0 17.0 0.00 0.00 0.00 40 1006.5
20260504205323 78 199 6.0 11.0 0.00 0.00 0.00 38 1006.5
20260504204831 79 232 6.0 13.0 0.00 0.00 0.00 41 1006.6
20260504204335 79 198 3.0 17.0 0.00 0.00 0.00 38 1006.6
20260504203840 79 196 5.0 17.0 0.00 0.00 0.00 38 1006.6
20260504203325 79 202 8.0 14.0 0.00 0.00 0.00 40 1006.6
20260504202829 79 199 7.0 14.0 0.00 0.00 0.00 37 1006.6
20260504202337 78 188 4.0 13.0 0.00 0.00 0.00 41 1006.8
20260504201841 78 202 4.0 18.0 0.00 0.00 0.00 38 1006.8
20260504201326 77 239 8.0 18.0 0.00 0.00 0.00 39 1007.0
20260504200832 78 193 6.0 14.0 0.00 0.00 0.00 42 1007.0
20260504200340 78 204 8.0 14.0 0.00 0.00 0.00 38 1007.1
20260504195844 78 168 8.0 14.0 0.00 0.00 0.00 37 1007.2
20260504195328 77 130 4.0 15.0 0.00 0.00 0.00 41 1007.2
20260504194851 77 223 6.0 15.0 0.00 0.00 0.00 40 1007.2
20260504194338 77 184 6.0 13.0 0.00 0.00 0.00 38 1007.5
20260504193843 77 217 8.0 14.0 0.00 0.00 0.00 38 1007.5
20260504193346 77 207 7.0 16.0 0.00 0.00 0.00 39 1007.7
20260504192833 77 186 4.0 16.0 0.00 0.00 0.00 39 1007.6
20260504192340 78 255 3.0 10.0 0.00 0.00 0.00 42 1007.9
20260504191904 77 206 4.0 10.0 0.00 0.00 0.00 42 1008.0
20260504191327 77 192 5.0 11.0 0.00 0.00 0.00 39 1008.1
20260504190830 76 181 5.0 13.0 0.00 0.00 0.00 38 1008.0
20260504190338 76 194 6.0 13.0 0.00 0.00 0.00 41 1008.2
20260504185842 76 209 3.0 12.0 0.00 0.00 0.00 40 1008.3
20260504185346 76 207 5.0 13.0 0.00 0.00 0.00 43 1008.2
20260504184828 75 201 9.0 13.0 0.00 0.00 0.00 40 1008.5
20260504184336 75 192 7.0 13.0 0.00 0.00 0.00 43 1008.7
20260504183901 76 216 3.0 15.0 0.00 0.00 0.00 40 1008.7
20260504183324 76 225 8.0 15.0 0.00 0.00 0.00 39 1008.7
20260504182351 76 176 6.0 11.0 0.00 0.00 0.00 41 1008.9
20260504181838 76 186 5.0 7.0 0.00 0.00 0.00 43 1009.0
20260504181327 76 243 3.0 6.0 0.00 0.00 0.00 42 1009.1
20260504180831 75 269 1.0 12.0 0.00 0.00 0.00 44 1009.2
20260504180336 75 182 4.0 15.0 0.00 0.00 0.00 41 1009.4
20260504175840 75 189 10.0 15.0 0.00 0.00 0.00 41 1009.3
20260504175404 74 202 6.0 13.0 0.00 0.00 0.00 42 1009.5
20260504174827 75 203 5.0 10.0 0.00 0.00 0.00 43 1009.5
20260504174332 74 195 4.0 11.0 0.00 0.00 0.00 45 1009.4
20260504173837 75 206 3.0 12.0 0.00 0.00 0.00 45 1009.5
20260504173341 74 203 6.0 12.0 0.00 0.00 0.00 42 1009.8
20260504172826 74 196 3.0 11.0 0.00 0.00 0.00 43 1009.7
20260504172329 74 200 6.0 11.0 0.00 0.00 0.00 42 1009.7
20260504171837 74 185 8.0 11.0 0.00 0.00 0.00 41 1009.8
20260504171324 74 98 3.0 6.0 0.00 0.00 0.00 42 1009.8
20260504170852 74 266 3.0 12.0 0.00 0.00 0.00 44 1010.1
20260504170335 73 190 6.0 13.0 0.00 0.00 0.00 40 1010.2
20260504160334 71 181 6.0 12.0 0.00 0.00 0.00 42 1010.9